x

Canaveral East - 120nm East Of Cape Canaveral (41010) Weather Station

6:20pm - Tue 19th Sep 2017 All times are EDT. -4 hours from GMT.

  • Wind
    11mph, 13mph gusts
  • Sea Temp 84°f
  • Sea Pressure 1013.9mb
  • Canaveral East - 120nm East Of Cape Canaveral
  • Canaveral East - 120nm East Of Cape Canaveral

More Historic Weather Station data

Upgrade to MSW Pro to gain access to the past 30 days of data for over 8000 Wavebouys and Weather Stations around the globe.

Join

Comparision Forecast

View Surf forecast
   
Tue 09/19 6:20pm  -   -   -  11 13 mph 1013.9mb 84f
6:10pm  -   -   -  11 16 mph 1013.9mb 84f
6:00pm  -   -   -  11 13 mph 1013.9mb 84f
5:50pm 6ft 13s 8s 11 13 mph 1013.9mb 84f
5:40pm  -   -   -  9 16 mph 1013.9mb 84f
5:30pm  -   -   -  11 13 mph 1013.9mb 84f
5:20pm  -   -   -  9 11 mph 1013.9mb 84f
5:10pm  -   -   -  9 13 mph 1013.8mb 84f
5:00pm  -   -   -  9 13 mph 1013.9mb 84f
4:50pm 6.5ft 10s 8s 9 13 mph 1013.9mb 84f
4:40pm  -   -   -  9 13 mph 1014mb 84f
4:30pm  -   -   -  9 13 mph 1013.9mb 84f
4:20pm  -   -   -  11 16 mph 1013.9mb 84f
4:10pm  -   -   -  9 13 mph 1014mb 84f
4:00pm  -   -   -  11 13 mph 1013.9mb 84f
3:50pm 7ft 12s 8s 11 16 mph 1014mb 84f
3:40pm 7ft  -  8s 11 16 mph 1014mb 84f
3:30pm  -   -   -  13 16 mph 1014mb 84f
3:20pm  -   -   -  13 18 mph 1014mb 84f
3:10pm  -   -   -  13 18 mph 1014mb 84f
3:00pm  -   -   -  11 16 mph 1014.1mb 84f
2:50pm 7ft 12s 9s 11 13 mph 1014.2mb 84f
2:40pm 7ft  -  9s 9 13 mph 1014.3mb 84f
2:30pm  -   -   -  9 16 mph 1014.3mb 84f
2:20pm  -   -   -  11 13 mph 1014.5mb 84f
2:10pm  -   -   -  11 13 mph 1014.5mb 84f
2:00pm  -   -   -  11 16 mph 1014.6mb 84f
1:50pm 6.5ft 12s 8s 11 13 mph 1014.6mb 84f
1:40pm  -   -   -  11 13 mph 1014.7mb 84f
1:30pm  -   -   -  11 16 mph 1014.8mb 84f
1:20pm  -   -   -  11 13 mph 1014.8mb 84f
1:10pm  -   -   -  9 13 mph 1014.9mb 84f
1:00pm  -   -   -  9 13 mph 1015mb 84f
12:50pm 7ft 12s 8s 9 11 mph 1015mb 84f
12:40pm  -   -   -  9 11 mph 1015.2mb 84f
12:30pm  -   -   -  9 11 mph 1015.2mb 84f
12:20pm  -   -   -  7 11 mph 1015.2mb 84f
12:10pm  -   -   -  9 11 mph 1015.2mb 84f
12:00pm  -   -   -  7 11 mph 1015.2mb 84f
11:50am 7ft  -  8s 9 11 mph 1015.1mb -
11:40am 7ft 12s 8s  -  mph - 84f
11:30am  -   -   -  7 11 mph 1015.2mb 84f
11:20am  -   -   -  7 11 mph 1015.3mb 84f
11:10am  -   -   -  7 9 mph 1015.4mb 84f
11:00am  -   -   -  9 13 mph 1015.3mb 84f
10:50am 7.5ft 12s 9s 9 11 mph 1015.3mb 84f
10:40am  -   -   -  7 11 mph 1015.3mb 84f
10:30am  -   -   -  9 11 mph 1015.1mb 84f
10:20am  -   -   -  9 11 mph 1015mb 84f
10:10am  -   -   -  7 11 mph 1015mb 84f
10:00am  -   -   -  7 11 mph 1015mb 84f
9:50am 7ft 12s 9s 7 9 mph 1014.9mb 84f
9:40am  -   -   -  7 9 mph 1014.9mb 84f
9:30am  -   -   -  7 11 mph 1014.8mb 84f
9:20am  -   -   -  7 11 mph 1014.8mb 84f
9:10am  -   -   -  7 11 mph 1014.7mb 84f
9:00am  -   -   -  7 11 mph 1014.6mb 84f
8:50am 8ft 12s 9s 4 9 mph 1014.5mb 84f
8:40am 8ft  -  9s 7 11 mph 1014.4mb 84f
8:30am  -   -   -  4 9 mph 1014.3mb 84f
8:20am  -   -   -  7 11 mph 1014.3mb 84f
8:10am  -   -   -  7 11 mph 1014.2mb 84f
8:00am  -   -   -  4 9 mph 1014.1mb 84f
7:50am 7.5ft 12s 8s 7 9 mph 1014mb 84f
7:40am  -   -   -  7 11 mph 1014mb 84f
7:30am  -   -   -  7 11 mph 1014mb 84f
7:20am  -   -   -  7 11 mph 1013.9mb 84f
7:10am  -   -   -  7 11 mph 1013.9mb 84f
7:00am  -   -   -  7 11 mph 1013.8mb 84f
6:50am 8ft 12s 8s 7 11 mph 1013.7mb 84f
6:40am  -   -   -  4 9 mph 1013.8mb 84f
6:30am  -   -   -  4 9 mph 1013.7mb 84f
6:20am  -   -   -  4 9 mph 1013.6mb 84f
6:10am  -   -   -  7 9 mph 1013.6mb 84f
6:00am  -   -   -  4 9 mph 1013.5mb 84f
5:50am 8ft 11s 8s 4 9 mph 1013.4mb 84f
5:40am 8ft  -  8s 7 11 mph 1013.2mb 84f
5:30am  -   -   -  7 11 mph 1013.2mb 84f
5:20am  -   -   -  7 11 mph 1013.1mb 84f
5:10am  -   -   -  7 11 mph 1012.9mb 84f
5:00am  -   -   -  7 9 mph 1012.9mb 84f
4:50am 8ft 12s 8s 7 11 mph 1012.9mb 84f
4:40am  -   -   -  7 11 mph 1012.9mb 84f
4:30am  -   -   -  7 11 mph 1012.7mb 84f
4:20am  -   -   -  9 11 mph 1012.7mb 84f
4:10am  -   -   -  9 11 mph 1012.7mb 84f
4:00am  -   -   -  7 11 mph 1012.6mb 84f
3:50am 8.5ft 11s 8s 9 11 mph 1012.8mb 84f
3:40am 8.5ft  -  8s 7 11 mph 1012.8mb 84f
3:30am  -   -   -  7 9 mph 1012.8mb 84f
3:20am  -   -   -  4 9 mph 1012.9mb 84f
3:10am  -   -   -  7 11 mph 1012.9mb 84f
3:00am  -   -   -  7 11 mph 1012.9mb 84f
2:50am 7.5ft 13s 7s 9 13 mph 1013mb 84f
2:40am  -   -   -  9 13 mph 1013.1mb 84f
2:30am  -   -   -  9 13 mph 1013.2mb 84f
2:20am  -   -   -  9 13 mph 1013.2mb 84f
2:10am  -   -   -  9 11 mph 1013.3mb 84f
2:00am  -   -   -  9 13 mph 1013.4mb 84f
1:50am 7.5ft 9s 7s 11 16 mph 1013.4mb 84f
1:40am  -   -   -  11 16 mph 1013.5mb 84f
1:30am  -   -   -  11 13 mph 1013.5mb 84f
1:20am  -   -   -  11 16 mph 1013.6mb 84f
1:10am  -   -   -  11 16 mph 1013.7mb 84f
1:00am  -   -   -  11 16 mph 1013.7mb -
12:50am 7ft 11s 7s 11 16 mph 1013.8mb 84f
12:40am  -   -   -  11 16 mph 1013.8mb 84f
12:30am  -   -   -  11 16 mph 1013.8mb -
12:20am  -   -   -  11 16 mph 1013.8mb 84f
12:10am  -   -   -  11 16 mph 1013.9mb 84f
12:00am  -   -   -  11 16 mph 1014mb 84f
Mon 09/18 11:50pm 8ft 11s 7s 11 13 mph 1014.1mb 84f
11:40pm  -   -   -  11 13 mph 1014.1mb 84f
11:30pm  -   -   -  11 13 mph 1014.1mb 84f
11:20pm  -   -   -  9 13 mph 1014.1mb 84f
11:10pm  -   -   -  9 13 mph 1014.1mb 84f
11:00pm  -   -   -  11 13 mph 1014.2mb 84f
10:50pm 7.5ft 11s 7s 11 13 mph 1014.2mb 84f
10:40pm  -   -   -  11 16 mph 1014mb 84f
10:30pm  -   -   -  11 16 mph 1014mb 84f
10:20pm  -   -   -  11 16 mph 1014mb 84f
10:10pm  -   -   -  11 16 mph 1013.8mb 84f
10:00pm  -   -   -  11 16 mph 1013.8mb 84f
9:50pm 8ft 11s 7s 13 18 mph 1013.7mb 84f
9:40pm 8ft  -  7s 13 16 mph 1013.6mb 83f
9:30pm  -   -   -  13 18 mph 1013.6mb 83f
9:20pm  -   -   -  13 18 mph 1013.4mb -
9:10pm  -   -   -  13 18 mph 1013.4mb 83f
9:00pm  -   -   -  13 18 mph 1013.4mb 83f
8:50pm 8ft 11s 8s 16 18 mph 1013.4mb 83f
8:40pm 8ft  -  8s 13 18 mph 1013.4mb 83f
8:30pm  -   -   -  13 18 mph 1013.4mb 83f
8:20pm  -   -   -  13 20 mph 1013.3mb 83f
8:10pm  -   -   -  13 18 mph 1013.2mb 83f
8:00pm  -   -   -  16 18 mph 1013.1mb 83f
7:50pm 8.5ft 12s 8s 13 18 mph 1013mb 83f
7:40pm  -   -   -  13 16 mph 1012.9mb 83f
7:30pm  -   -   -  13 18 mph 1012.9mb 83f
7:20pm  -   -   -  13 18 mph 1012.8mb 83f
7:10pm  -   -   -  13 18 mph 1012.7mb 83f
7:00pm  -   -   -  13 18 mph 1012.6mb 83f
6:50pm 7.5ft 11s 8s 13 18 mph 1012.6mb 83f
6:40pm  -   -   -  13 16 mph 1012.7mb 83f
6:30pm  -   -   -  13 18 mph 1012.6mb 83f
6:20pm  -   -   -  13 20 mph 1012.6mb 83f
6:10pm  -   -   -  11 16 mph 1012.6mb 83f
6:00pm  -   -   -  11 16 mph 1012.6mb 83f
5:50pm 8ft 12s 8s 13 16 mph 1012.6mb 83f
5:40pm 8ft  -  8s 11 16 mph 1012.6mb 83f
5:30pm  -   -   -  11 13 mph 1012.6mb 83f
5:20pm  -   -   -  11 16 mph 1012.6mb 83f
5:10pm  -   -   -  11 16 mph 1012.6mb 83f
5:00pm  -   -   -  11 16 mph 1012.5mb 83f
4:50pm 8ft 12s 8s 13 18 mph 1012.5mb 83f
4:40pm 8ft  -  8s 13 16 mph 1012.5mb 83f
4:30pm  -   -   -  13 16 mph 1012.6mb 83f
4:20pm  -   -   -  13 16 mph 1012.6mb 83f
4:10pm  -   -   -  13 18 mph 1012.6mb 84f
4:00pm  -   -   -  13 16 mph 1012.6mb 84f
3:50pm 9ft 13s 8s 11 16 mph 1012.6mb 84f
3:40pm 9ft  -  8s 11 16 mph 1012.6mb 83f
3:30pm  -   -   -  11 16 mph 1012.6mb 83f
3:20pm  -   -   -  13 16 mph 1012.7mb 84f
3:10pm  -   -   -  13 16 mph 1012.7mb 83f
3:00pm  -   -   -  11 16 mph 1012.7mb 83f
2:50pm 9ft 12s 8s 11 16 mph 1012.8mb 83f
2:40pm  -   -   -  11 16 mph 1012.9mb 83f
2:30pm  -   -   -  11 16 mph 1013mb 83f
2:20pm  -   -   -  11 16 mph 1013.1mb 84f
2:10pm  -   -   -  13 16 mph 1013.1mb 84f
2:00pm  -   -   -  13 16 mph 1013.2mb 84f
1:50pm 10ft 12s 8s 13 16 mph 1013.2mb 83f
1:40pm  -   -   -  11 16 mph 1013.3mb 83f
1:30pm  -   -   -  11 16 mph 1013.5mb 83f
1:20pm  -   -   -  13 16 mph 1013.6mb 83f
1:10pm  -   -   -  13 16 mph 1013.8mb 83f
1:00pm  -   -   -  13 16 mph 1013.8mb 83f
12:50pm 10ft 13s 9s 11 16 mph 1013.8mb 83f
12:40pm 10ft  -  9s 11 16 mph 1013.8mb 83f
12:30pm  -   -   -  11 16 mph 1013.8mb 83f
12:20pm  -   -   -  13 16 mph 1013.9mb 83f
12:10pm  -   -   -  11 18 mph 1014mb 83f
12:00pm  -   -   -  11 16 mph 1014mb 83f
11:50am 11ft 12s 9s 11 13 mph 1014mb 83f
11:40am  -   -   -  11 16 mph 1014mb 83f
11:30am  -   -   -  13 18 mph 1014mb 83f
11:20am  -   -   -  11 16 mph 1014mb 83f
11:10am  -   -   -  11 13 mph 1014.1mb 83f
11:00am  -   -   -  11 16 mph 1014.1mb 83f
10:50am 10ft 13s 8s 11 16 mph 1014mb 83f
10:40am  -   -   -  11 16 mph 1013.8mb 83f
10:30am  -   -   -  11 16 mph 1013.8mb 83f
10:20am  -   -   -  13 16 mph 1013.8mb 83f
10:10am  -   -   -  13 18 mph 1013.8mb 83f
10:00am  -   -   -  13 18 mph 1013.7mb 83f
9:50am 9.5ft 12s 8s 13 16 mph 1013.7mb 83f
9:40am  -   -   -  13 16 mph 1013.6mb 83f
9:30am  -   -   -  11 16 mph 1013.4mb 83f
9:20am  -   -   -  11 16 mph 1013.4mb 83f
9:10am  -   -   -  11 18 mph 1013.3mb 83f
9:00am  -   -   -  13 16 mph 1013.2mb -
8:50am 9ft 12s 8s 11 16 mph 1013.1mb 83f
8:40am  -   -   -  11 16 mph 1013.1mb 83f
8:30am  -   -   -  11 16 mph 1013.1mb 83f
8:20am  -   -   -  11 16 mph 1013mb 83f
8:10am  -   -   -  11 16 mph 1012.9mb 83f
8:00am  -   -   -  11 13 mph 1012.9mb 83f
7:50am 8ft 12s 8s 11 16 mph 1012.7mb 83f
7:40am  -   -   -  11 13 mph 1012.6mb 83f
7:30am  -   -   -  11 16 mph 1012.4mb 83f
7:20am  -   -   -  11 16 mph 1012.2mb 83f
7:10am  -   -   -  11 16 mph 1012.2mb 83f
7:00am  -   -   -  11 16 mph 1012.2mb 83f
6:50am 8ft 12s 7s 13 16 mph 1012.1mb 83f
6:40am  -   -   -  13 18 mph 1012mb 83f
6:30am  -   -   -  13 18 mph 1011.9mb 83f
6:20am  -   -   -  13 16 mph 1011.8mb 83f
6:10am  -   -   -  13 18 mph 1011.8mb 83f
6:00am  -   -   -  16 18 mph 1011.8mb 83f
5:50am 8ft 12s 7s 13 16 mph 1011.9mb 83f
5:40am  -   -   -  13 18 mph 1011.8mb 83f
5:30am  -   -   -  13 18 mph 1011.7mb 83f
5:20am  -   -   -  13 16 mph 1011.8mb 83f
5:10am  -   -   -  13 18 mph 1011.7mb 83f
5:00am  -   -   -  13 16 mph 1011.7mb 83f
4:50am 8.5ft 11s 8s 13 18 mph 1011.8mb 83f
4:40am  -   -   -  13 18 mph 1011.6mb 83f
4:30am  -   -   -  13 18 mph 1011.7mb 83f
4:20am  -   -   -  13 18 mph 1011.7mb 83f
4:10am  -   -   -  13 18 mph 1011.8mb 83f
4:00am  -   -   -  13 18 mph 1011.9mb 83f
3:50am 8ft 12s 7s 13 16 mph 1012mb 83f
3:40am  -   -   -  13 18 mph 1011.9mb 83f
3:30am  -   -   -  16 18 mph 1011.9mb 83f
3:20am  -   -   -  13 18 mph 1012mb 83f
3:10am  -   -   -  16 20 mph 1011.9mb 83f
3:00am  -   -   -  16 18 mph 1011.9mb 83f
2:50am 9ft 12s 7s 13 18 mph 1011.9mb 83f
2:40am 9ft  -  7s 11 16 mph 1012mb 83f
2:30am  -   -   -  11 13 mph 1012.3mb 83f
2:20am  -   -   -  13 18 mph 1012.4mb 83f
2:10am  -   -   -  13 16 mph 1012.5mb 83f
2:00am  -   -   -  11 16 mph 1012.7mb 83f
1:50am 8ft 12s 7s 11 16 mph 1012.9mb 83f
1:40am  -   -   -  11 16 mph 1012.9mb 83f
1:30am  -   -   -  13 16 mph 1012.9mb 83f
1:20am  -   -   -  13 16 mph 1012.9mb 83f
1:10am  -   -   -  13 16 mph 1012.9mb 83f
1:00am  -   -   -  13 18 mph 1013mb 83f
12:50am 7.5ft 12s 7s 13 18 mph 1012.9mb 83f
12:40am 7.5ft  -  7s 18 22 mph 1012.8mb 83f
12:30am  -   -   -  18 22 mph 1012.8mb 83f
12:20am  -   -   -  18 22 mph 1012.9mb 83f
12:10am  -   -   -  18 25 mph 1012.9mb 83f
12:00am  -   -   -  18 22 mph 1013mb 83f
Sun 09/17 11:50pm 8ft 12s 7s 18 22 mph 1013mb 83f
11:40pm 8ft  -  7s 18 22 mph 1013mb 83f
11:30pm  -   -   -  16 20 mph 1013.1mb 83f
11:20pm  -   -   -  16 20 mph 1013.2mb 83f
11:10pm  -   -   -  16 18 mph 1013.4mb -
11:00pm  -   -   -  16 18 mph 1013.5mb 83f
10:50pm 7ft 12s  -  16 18 mph 1013.4mb 83f
10:40pm  -   -   -  16 20 mph 1013.5mb 83f
10:30pm  -   -   -  16 20 mph 1013.5mb 83f
10:20pm  -   -   -  18 20 mph 1013.5mb 83f
10:10pm  -   -   -  16 20 mph 1013.2mb 83f
10:00pm  -   -   -  16 18 mph 1013mb 83f
9:50pm 7ft 12s 6s 13 18 mph 1012.7mb 83f
9:40pm 7ft  -  6s 16 20 mph 1012.6mb 83f
9:30pm  -   -   -  16 20 mph 1012.6mb 83f
9:20pm  -   -   -  18 22 mph 1012.5mb 83f
9:10pm  -   -   -  18 20 mph 1012.6mb 83f
9:00pm  -   -   -  13 18 mph 1012.6mb 83f
8:50pm 6.5ft 11s 7s 13 16 mph 1012.6mb 83f
8:40pm  -   -   -  18 22 mph 1012.5mb 83f
8:30pm  -   -   -  16 20 mph 1012.4mb 83f
8:20pm  -   -   -  16 18 mph 1012.2mb 83f
8:10pm  -   -   -  16 20 mph 1012.1mb 83f
8:00pm  -   -   -  16 20 mph 1012.1mb 83f
7:50pm 6ft 11s 6s 18 22 mph 1012.1mb 83f
7:40pm 6ft  -  6s 18 22 mph 1012mb 83f
7:30pm  -   -   -  18 22 mph 1011.8mb 83f
7:20pm  -   -   -  20 25 mph 1011.6mb 84f
7:10pm  -   -   -  18 22 mph 1011.6mb 84f
7:00pm  -   -   -  16 22 mph 1011.6mb 84f
6:50pm 7ft 12s 6s 13 18 mph 1011.6mb 84f
6:40pm  -   -   -  16 20 mph 1011.6mb 84f
6:30pm  -   -   -  18 22 mph 1011.6mb 84f
6:20pm  -   -   -  20 25 mph 1011.5mb 84f
6:10pm  -   -   -  18 25 mph 1011.6mb 84f
6:00pm  -   -   -  16 20 mph 1011.6mb 84f
5:50pm 6ft 13s 6s 16 18 mph 1011.6mb 84f
5:40pm  -   -   -  18 20 mph 1011.8mb 84f
5:30pm  -   -   -  16 20 mph 1011.8mb 84f
5:20pm  -   -   -  13 18 mph 1011.7mb 84f
5:10pm  -   -   -  13 18 mph 1011.6mb 84f
5:00pm  -   -   -  16 18 mph 1011.5mb 84f
4:50pm 7ft 11s 7s 16 20 mph 1011.5mb 84f
4:40pm  -   -   -  16 20 mph 1011.5mb 84f
4:30pm  -   -   -  16 18 mph 1011.5mb 84f
4:20pm  -   -   -  13 18 mph 1011.5mb 84f
4:10pm  -   -   -  13 16 mph 1011.6mb 84f
4:00pm  -   -   -  11 16 mph 1011.6mb 84f
3:50pm 7ft 12s 7s 11 13 mph 1011.6mb 84f
3:40pm  -   -   -  11 16 mph 1011.6mb 84f
3:30pm  -   -   -  13 18 mph 1011.6mb 84f
3:20pm  -   -   -  11 20 mph 1011.8mb 84f
3:10pm  -   -   -  13 22 mph 1011.9mb 84f
3:00pm  -   -   -  13 16 mph 1012mb 84f
2:50pm 7ft 11s 7s 13 18 mph 1012.1mb 84f
2:40pm  -   -   -  9 13 mph 1012.1mb 84f
2:30pm  -   -   -  7 9 mph 1012.3mb 84f
2:20pm  -   -   -  7 9 mph 1012.4mb 83f
2:10pm  -   -   -  9 9 mph 1012.6mb 84f
2:00pm  -   -   -  7 9 mph 1012.8mb 84f
1:50pm 7ft 11s 8s 4 9 mph 1012.9mb 84f
1:40pm 7ft  -  8s 4 9 mph 1012.9mb 84f
1:30pm  -   -   -  7 11 mph 1013mb 84f
1:20pm  -   -   -  7 13 mph 1013.1mb 84f
1:10pm  -   -   -  2 9 mph 1013.2mb 84f
1:00pm  -   -   -  2 7 mph 1013.2mb 84f
12:50pm 8ft 13s 8s 4 16 mph 1013.4mb 84f
12:40pm  -   -   -  9 20 mph 1013.4mb 84f
12:30pm  -   -   -  7 11 mph 1013.3mb 84f
12:20pm  -   -   -  7 9 mph 1013.3mb 83f
12:10pm  -   -   -  7 11 mph 1013.3mb 83f
12:00pm  -   -   -  7 11 mph 1013.2mb 83f
11:50am 8.5ft 12s 8s 9 13 mph 1013.3mb 83f
11:40am  -   -   -  9 13 mph 1013.4mb 83f
11:30am  -   -   -  7 11 mph 1013.4mb 83f
11:20am  -   -   -  7 9 mph 1013.4mb 83f
11:10am  -   -   -  9 13 mph 1013.4mb 83f
11:00am  -   -   -  7 11 mph 1013.5mb 83f
10:50am 8.5ft 12s 8s 11 16 mph 1013.6mb 83f
10:40am 8.5ft  -  8s 11 13 mph 1013.7mb 83f
10:30am  -   -   -  11 16 mph 1013.5mb 83f
10:20am  -   -   -  13 18 mph 1013.6mb 83f
10:10am  -   -   -  13 18 mph 1013.4mb 83f
10:00am  -   -   -  9 13 mph 1013.3mb 83f
9:50am 8ft 13s 8s 11 16 mph 1013.4mb -
9:40am  -   -   -  13 18 mph 1013.4mb 83f
9:30am  -   -   -  16 20 mph 1013.2mb 83f
9:20am  -   -   -  16 20 mph 1013.1mb 83f
9:10am  -   -   -  11 16 mph 1013.1mb 83f
9:00am  -   -   -  11 18 mph 1013mb 83f
8:50am 8.5ft 11s 8s 13 20 mph 1012.9mb 83f
8:40am  -   -   -  11 16 mph 1012.9mb 83f
8:30am  -   -   -  13 16 mph 1012.9mb 83f
8:20am  -   -   -  13 16 mph 1012.7mb 83f
8:10am  -   -   -  13 18 mph 1012.7mb 83f
8:00am  -   -   -  13 18 mph 1012.7mb 83f
7:50am 7.5ft 13s 7s 9 13 mph 1012.7mb -
7:40am 7.5ft  -  7s 11 13 mph 1012.7mb 83f
7:30am  -   -   -  11 13 mph 1012.7mb -
7:20am  -   -   -  11 13 mph 1012.7mb 83f
7:10am  -   -   -  11 13 mph 1012.7mb 83f
7:00am  -   -   -  11 13 mph 1012.6mb 83f
6:50am 8.5ft 13s 8s 11 13 mph 1012.4mb 83f
6:40am 8.5ft  -  8s 13 18 mph 1012.3mb 83f
6:30am  -   -   -  18 22 mph 1012mb 83f
6:20am  -   -   -  13 25 mph 1012.1mb 83f
6:10am  -   -   -  13 16 mph 1012mb 83f
6:00am  -   -   -  13 16 mph 1012mb 83f
5:50am 9ft 14s 8s 13 16 mph 1011.9mb 83f
5:40am 9ft  -  8s 13 16 mph 1011.8mb 83f
5:30am  -   -   -  13 18 mph 1011.8mb 83f
5:20am  -   -   -  13 16 mph 1011.8mb 83f
5:10am  -   -   -  13 18 mph 1011.8mb 83f
5:00am  -   -   -  16 18 mph 1011.7mb 83f
4:50am 9.5ft 13s 8s 16 18 mph 1011.6mb 83f
4:40am 9.5ft  -  8s 18 20 mph 1011.5mb 83f
4:30am  -   -   -  18 22 mph 1011.5mb 83f
4:20am  -   -   -  18 20 mph 1011.6mb 83f
4:10am  -   -   -  16 20 mph 1011.5mb 83f
4:00am  -   -   -  18 22 mph 1011.6mb 83f
3:50am 10ft 13s 8s 18 22 mph 1011.7mb -
3:40am  -   -   -  18 25 mph 1011.7mb 83f
3:30am  -   -   -  18 25 mph 1011.5mb 83f
3:20am  -   -   -  20 25 mph 1011.5mb 83f
3:10am  -   -   -  18 22 mph 1011.6mb 83f
3:00am  -   -   -  18 22 mph 1011.6mb 83f
2:50am 10.5ft 13s 8s 18 22 mph 1011.7mb 83f
2:40am  -   -   -  20 25 mph 1011.7mb 83f
2:30am  -   -   -  18 22 mph 1012mb 83f
2:20am  -   -   -  18 20 mph 1012.1mb 83f
2:10am  -   -   -  18 22 mph 1012.3mb -
2:00am  -   -   -  18 22 mph 1012.4mb 83f
1:50am 10ft 14s 8s 18 22 mph 1012.5mb 83f
1:40am  -   -   -  20 25 mph 1012.5mb 83f
1:30am  -   -   -  20 25 mph 1012.4mb 83f
1:20am  -   -   -  20 25 mph 1012.4mb 83f
1:10am  -   -   -  20 27 mph 1012.6mb 83f
1:00am  -   -   -  20 25 mph 1012.6mb 83f
12:50am 11.5ft 14s 9s 20 25 mph 1012.7mb 83f
12:40am  -   -   -  20 25 mph 1012.7mb 83f
12:30am  -   -   -  20 25 mph 1012.7mb 83f
12:20am  -   -   -  18 22 mph 1012.8mb 83f
12:10am  -   -   -  20 25 mph 1013mb 83f
12:00am  -   -   -  20 25 mph 1013.1mb 83f
Sat 09/16 11:50pm 10.5ft 14s 8s 20 25 mph 1013.2mb 83f
11:40pm  -   -   -  20 22 mph 1013.4mb 83f
11:30pm  -   -   -  20 22 mph 1013.4mb 83f
11:20pm  -   -   -  20 25 mph 1013.4mb 83f
11:10pm  -   -   -  18 22 mph 1013.4mb 83f
11:00pm  -   -   -  18 22 mph 1013.5mb 83f
10:50pm 11ft 14s 9s 20 25 mph 1013.5mb 83f
10:40pm 11ft  -  9s 20 25 mph 1013.6mb 83f
10:30pm  -   -   -  18 22 mph 1013.7mb 83f
10:20pm  -   -   -  18 22 mph 1014mb 83f
10:10pm  -   -   -  18 22 mph 1013.9mb 83f
10:00pm  -   -   -  18 22 mph 1014mb 83f
9:50pm 11.5ft 14s 8s 20 22 mph 1014mb 83f
9:40pm 11.5ft  -  8s 20 25 mph 1013.9mb 83f
9:30pm  -   -   -  18 22 mph 1013.9mb 83f
9:20pm  -   -   -  18 22 mph 1013.8mb 83f
9:10pm  -   -   -  20 25 mph 1013.7mb 83f
9:00pm  -   -   -  20 25 mph 1013.7mb 83f
8:50pm 11ft 13s 8s 20 25 mph 1013.7mb 83f
8:40pm  -   -   -  20 25 mph 1013.6mb -
8:30pm  -   -   -  20 25 mph 1013.6mb 83f
8:20pm  -   -   -  20 25 mph 1013.5mb 83f
8:10pm  -   -   -  20 25 mph 1013.5mb 83f
8:00pm  -   -   -  20 22 mph 1013.4mb 83f
7:50pm 13ft 14s 9s 18 22 mph 1013.3mb 83f
7:40pm  -   -   -  18 22 mph 1013.3mb 83f
7:30pm  -   -   -  18 22 mph 1013.2mb 83f
7:20pm  -   -   -  18 22 mph 1013.2mb 83f
7:10pm  -   -   -  18 20 mph 1013.1mb 83f
7:00pm  -   -   -  18 22 mph 1013.1mb 83f
6:50pm 12ft 14s 9s 20 25 mph 1013.1mb 83f
6:40pm  -   -   -  18 22 mph 1013.2mb 83f
6:30pm  -   -   -  18 22 mph 1013.3mb 83f
6:20pm  -   -   -  18 20 mph 1013.6mb 83f
6:10pm  -   -   -  18 20 mph 1013.7mb 83f
6:00pm  -   -   -  18 22 mph 1013.8mb 83f
5:50pm 12ft 14s 9s 18 22 mph 1013.9mb 83f
5:40pm  -   -   -  18 22 mph 1013.8mb 83f
5:30pm  -   -   -  18 20 mph 1013.8mb 83f
5:20pm  -   -   -  18 22 mph 1013.8mb 83f
5:10pm  -   -   -  20 25 mph 1013.7mb 83f
5:00pm  -   -   -  20 25 mph 1013.8mb 83f
4:50pm 11ft 14s 9s 22 29 mph 1013.7mb 83f
4:40pm  -   -   -  22 29 mph 1013.7mb 83f
4:30pm  -   -   -  20 27 mph 1013.7mb -
4:20pm  -   -   -  22 27 mph 1013.8mb 83f
4:10pm  -   -   -  20 27 mph 1013.7mb 84f
4:00pm  -   -   -  18 25 mph 1013.7mb 84f
3:50pm 10ft 13s 8s 22 27 mph 1013.6mb 84f
3:40pm  -   -   -  22 27 mph 1013.7mb 84f
3:30pm  -   -   -  20 25 mph 1013.9mb 84f
3:20pm  -   -   -  18 22 mph 1014mb 84f
3:10pm  -   -   -  16 20 mph 1014.2mb 84f
3:00pm  -   -   -  16 20 mph 1014.4mb 84f
2:50pm 9ft 15s 8s 18 22 mph 1014.5mb 84f
2:40pm 9ft  -  8s 18 22 mph 1014.6mb 84f
2:30pm  -   -   -  18 22 mph 1014.7mb 84f
2:20pm  -   -   -  18 20 mph 1014.7mb 84f
2:10pm  -   -   -  18 20 mph 1014.8mb 84f
2:00pm  -   -   -  18 22 mph 1014.8mb 84f
1:50pm 7.5ft 14s 8s 18 20 mph 1014.8mb 84f
1:40pm  -   -   -  18 22 mph 1014.9mb 84f
1:30pm  -   -   -  18 22 mph 1015mb 84f
1:20pm  -   -   -  18 22 mph 1015.2mb 83f
1:10pm  -   -   -  18 22 mph 1015.2mb 83f
1:00pm  -   -   -  18 20 mph 1015.4mb 83f
12:50pm 8ft 14s 8s 16 20 mph 1015.6mb 83f
12:40pm 8ft  -  8s 16 20 mph 1015.6mb 83f
12:30pm  -   -   -  18 22 mph 1015.7mb -
12:20pm  -   -   -  18 22 mph 1015.7mb 83f
12:10pm  -   -   -  16 20 mph 1015.7mb 83f
12:00pm  -   -   -  16 20 mph 1015.7mb 83f
11:50am 7ft 14s 7s 18 22 mph 1015.9mb 83f
11:40am  -   -   -  18 20 mph 1015.8mb 83f
11:30am  -   -   -  16 20 mph 1016mb -
11:20am  -   -   -  16 20 mph 1016mb 83f
11:10am  -   -   -  16 20 mph 1016mb 83f
11:00am  -   -   -  18 22 mph 1016mb 83f
10:50am 7.5ft 14s 7s 18 22 mph 1016mb 83f
10:40am  -   -   -  16 20 mph 1016mb 83f
10:30am  -   -   -  16 22 mph 1016.1mb 83f
10:20am  -   -   -  18 22 mph 1016.2mb 83f
10:10am  -   -   -  18 20 mph 1016.2mb 83f
10:00am  -   -   -  18 22 mph 1016.2mb 83f
9:50am 9ft 14s 8s 18 20 mph 1016.1mb 83f
9:40am  -   -   -  18 22 mph 1016.1mb 83f
9:30am  -   -   -  18 22 mph 1015.9mb 83f
9:20am  -   -   -  18 22 mph 1015.8mb 83f
9:10am  -   -   -  18 20 mph 1015.7mb 83f
9:00am  -   -   -  18 22 mph 1015.7mb 83f
8:50am 8ft 15s 8s 18 22 mph 1015.6mb -
8:40am 8ft  -  8s 18 20 mph 1015.7mb 83f
8:30am  -   -   -  18 22 mph 1015.8mb 83f
8:20am  -   -   -  18 22 mph 1015.9mb 83f
8:10am  -   -   -  18 20 mph 1015.9mb 83f
8:00am  -   -   -  18 22 mph 1015.8mb 83f
7:50am 8ft  -  8s 18 22 mph 1015.7mb 83f
7:40am 8ft 15s 8s  -  mph - -
7:30am  -   -   -  18 22 mph 1015.4mb 83f
7:20am  -   -   -  18 22 mph 1015.3mb 83f
7:10am  -   -   -  18 20 mph 1015.3mb 83f
7:00am  -   -   -  18 22 mph 1015.2mb 83f
6:50am 8.5ft 15s 9s 18 20 mph 1015.1mb 83f
6:40am 8.5ft  -  9s 16 20 mph 1015mb 83f
6:30am  -   -   -  18 22 mph 1014.9mb 83f
6:20am  -   -   -  18 20 mph 1014.8mb 83f
6:10am  -   -   -  18 22 mph 1014.6mb 83f
6:00am  -   -   -  18 22 mph 1014.6mb 83f
5:50am 8.5ft 14s 9s 18 20 mph 1014.5mb 83f
5:40am  -   -   -  16 20 mph 1014.5mb 83f
5:30am  -   -   -  16 20 mph 1014.5mb 83f
5:20am  -   -   -  16 20 mph 1014.4mb 83f
5:10am  -   -   -  16 22 mph 1014.4mb 83f
5:00am  -   -   -  16 20 mph 1014.3mb 83f
4:50am 7ft 15s 8s 16 18 mph 1014.3mb 83f
4:40am 7ft  -  8s 16 18 mph 1014.2mb 83f
4:30am  -   -   -  16 18 mph 1014.3mb 83f
4:20am  -   -   -  16 18 mph 1014.3mb -
4:10am  -   -   -  16 18 mph 1014.3mb 83f
4:00am  -   -   -  16 18 mph 1014.4mb 83f
3:50am 7ft 12s 8s 16 18 mph 1014.4mb 83f
3:40am  -   -   -  16 18 mph 1014.4mb 83f
3:30am  -   -   -  13 18 mph 1014.5mb 83f
3:20am  -   -   -  16 18 mph 1014.6mb 83f
3:10am  -   -   -  13 16 mph 1014.7mb 83f
3:00am  -   -   -  13 18 mph 1014.8mb 83f
2:50am 6ft 11s 7s 13 18 mph 1015mb 83f
2:40am  -   -   -  13 18 mph 1014.9mb 83f
2:30am  -   -   -  13 18 mph 1015mb 83f
2:20am  -   -   -  13 18 mph 1015.1mb 83f
2:10am  -   -   -  13 16 mph 1015.3mb 83f
2:00am  -   -   -  13 16 mph 1015.3mb 83f
1:50am 6ft 11s 7s 13 18 mph 1015.4mb 83f
1:40am 6ft  -  7s 13 16 mph 1015.6mb 83f
1:30am  -   -   -  13 18 mph 1015.6mb 83f
1:20am  -   -   -  13 18 mph 1015.6mb 83f
1:10am  -   -   -  13 18 mph 1015.8mb 83f
1:00am  -   -   -  13 16 mph 1015.9mb 83f
12:50am 6.5ft 11s 7s 13 16 mph 1015.9mb 83f
12:40am  -   -   -  13 16 mph 1016mb 83f
12:30am  -   -   -  13 18 mph 1016.2mb 83f
12:20am  -   -   -  13 16 mph 1016.3mb 83f
12:10am  -   -   -  11 16 mph 1016.5mb 83f
12:00am  -   -   -  13 16 mph 1016.6mb 83f
Fri 09/15 11:50pm 5.5ft 11s 7s 13 16 mph 1016.6mb 83f
11:40pm  -   -   -  13 16 mph 1016.6mb 83f
11:30pm  -   -   -  13 16 mph 1016.6mb 83f
11:20pm  -   -   -  13 16 mph 1016.6mb 83f